Regional Weather Roundup
Issued by NWS

Home | Current Version | Previous Version | Graphics & Text | Print | Product List | Glossary On
Versions: 1 2 3 4 5 6 7 8 9 10 11 12 13 14 15 16 17 18 19 20 21 22 23 24 25 26 27 28 29 30 31 32 33 34 35 36 37 38 39 40 41 42 43 44 45 46 47 48 49 50
000
ASUS44 KMEG 081500
RWRTN
TENNESSEE HOURLY STATE WEATHER ROUNDUP
NATIONAL WEATHER SERVICE MEMPHIS TN
900 AM CST MON FEB 08 2016

TNZ002-004-019-021-049-052-054-088>092-081600-
WEST TENNESSEE

CITY           SKY/WX    TMP DP  RH WIND       PRES   REMARKS
MEMPHIS INTL   MOSUNNY   45  23  42 NW22G33   29.94R
NWS MEMPHIS      N/A     42 N/A N/A MISG        N/A
JACKSON        MOSUNNY   44  24  45 NW18G25   29.88R
DYERSBURG      CLOUDY    39  25  56 W8        29.90R WCI  34
$$

TNZ008-025-027-028-033-062-065-066-081600-
NORTH MIDDLE TENNESSEE

CITY           SKY/WX    TMP DP  RH WIND       PRES   REMARKS
NASHVILLE      PTSUNNY   44  24  45 W12G21    29.80R
CLARKSVILLE    SUNNY     42  27  55 NW17      29.80R
CROSSVILLE     PTSUNNY   42  27  55 SW12G21   29.72F
$$

TNZ061-075-076-078-094-096-097-081600-
SOUTH MIDDLE TENNESSEE

CITY           SKY/WX    TMP DP  RH WIND       PRES   REMARKS
$$

TNZ017-018-042-046-047-081600-
NORTHEAST TENNESSEE

CITY           SKY/WX    TMP DP  RH WIND       PRES   REMARKS
TRI CITIES     CLOUDY    34  28  79 CALM      29.73S
$$

TNZ012-013-036-069-073-074-081600-
CENTRAL EAST TENNESSEE

CITY           SKY/WX    TMP DP  RH WIND       PRES   REMARKS
KNOXVILLE      CLOUDY    43  29  57 SW10      29.75F
OAK RIDGE      MOSUNNY   44  28  53 VRB3      29.76F
$$

TNZ083-085-099-081600-
SOUTHEAST TENNESSEE

CITY           SKY/WX    TMP DP  RH WIND       PRES   REMARKS
CHATTANOOGA    MOSUNNY   48  29  47 S8        29.79F
$$

SKY/WX REPORTED AS FAIR MEANS FEW OR NO CLOUDS BELOW
12 THOUSAND FEET.




USA.gov is the U.S. government's official web portal to all federal, state and local government web resources and services.